Find Starlink 4756

NORAD ID: 53826 Int'l Des: 2022-114 Owner: SPXS Country: US Constellation: starlink operational
LEOCIRCULAR

現在のビュー

3D地球を読み込み中...

About Starlink 4756

Starlink 4756 (NORAD 53826) is a starlink constellation satellite (v1.5) launched Sep 19, 2022 by SPXS of US. It operates in LEO, CIRCULAR orbit with a mass of 305.00 kg.

Starlink 4756について

説明を読み込み中...

次回通過

Passes for default location (London). Set your location on the main map for personalized predictions.

高度履歴

Loading altitude history...

軌道要素

1 53826U 22114J 26171.37160272 .00000316 00000-0 37937-4 0 9992
2 53826 53.1596 202.9934 0000549 94.9454 265.1600 15.08830722208339
Epoch: Jun 20, 2026 • Age: 44 hours

現在のステータス

高度 556.8 km
速度 7.58 km/s
衛星直下点 -48.40°S, 150.34°E
打ち上げ日 Sep 19, 2022
運用期間 3.7 years
タイプ internet

技術仕様

分類 Payload
質量 305.00 kg
乾燥質量 290.00 kg
総質量 305.00 kg
長さ 0.20 m
直径 2.80 m
スパン 9.00 m
形状 Box + pan
製造者 SPXS
バスタイプ Starlink
フェーズステータス In Orbit
所有者/国 SPXS/US

Most Searched